TimeEDT,TemperatureF,Dew PointF,Humidity,Sea Level PressureIn,VisibilityMPH,Wind Direction,Wind SpeedMPH,Gust SpeedMPH,PrecipitationIn,Events,Conditions,WindDirDegrees,DateUTC
12:51 AM,61.0,52.0,72,30.01,10.0,South,12.7,-,N/A,,Mostly Cloudy,170,2014-04-14 04:51:00
1:51 AM,60.8,51.8,72,30.00,10.0,South,11.5,-,N/A,,Scattered Clouds,170,2014-04-14 05:51:00
2:51 AM,59.0,52.0,78,30.00,10.0,South,10.4,-,N/A,,Scattered Clouds,170,2014-04-14 06:51:00
3:51 AM,59.0,52.0,78,29.99,10.0,South,12.7,-,N/A,,Partly Cloudy,180,2014-04-14 07:51:00
4:51 AM,57.9,52.0,81,29.98,10.0,South,11.5,-,N/A,,Partly Cloudy,180,2014-04-14 08:51:00
5:51 AM,57.9,52.0,81,29.98,10.0,South,13.8,-,N/A,,Mostly Cloudy,180,2014-04-14 09:51:00
6:51 AM,57.9,52.0,81,29.98,10.0,South,11.5,-,N/A,,Mostly Cloudy,180,2014-04-14 10:51:00
7:51 AM,59.0,53.1,81,30.00,10.0,South,13.8,-,N/A,,Mostly Cloudy,190,2014-04-14 11:51:00
8:51 AM,63.0,53.1,70,29.99,10.0,South,13.8,-,N/A,,Scattered Clouds,190,2014-04-14 12:51:00
9:51 AM,66.0,53.1,63,29.98,10.0,South,15.0,-,N/A,,Mostly Cloudy,190,2014-04-14 13:51:00
10:51 AM,69.8,53.6,56,29.97,10.0,South,18.4,26.5,N/A,,Mostly Cloudy,180,2014-04-14 14:51:00
11:51 AM,72.0,53.1,51,29.95,10.0,South,18.4,25.3,N/A,,Overcast,190,2014-04-14 15:51:00
12:51 PM,73.0,53.1,49,29.93,10.0,South,21.9,31.1,N/A,,Mostly Cloudy,190,2014-04-14 16:51:00
1:51 PM,73.4,53.6,50,29.91,10.0,South,23.0,35.7,N/A,,Overcast,180,2014-04-14 17:51:00
2:51 PM,73.0,54.0,51,29.90,10.0,South,18.4,36.8,N/A,,Overcast,180,2014-04-14 18:51:00
3:51 PM,73.0,53.1,49,29.89,10.0,South,23.0,27.6,N/A,,Overcast,180,2014-04-14 19:51:00
4:51 PM,71.1,51.1,49,29.86,10.0,South,28.8,40.3,N/A,,Overcast,190,2014-04-14 20:51:00
5:51 PM,68.0,50.0,52,29.87,10.0,SSW,27.6,41.4,N/A,,Overcast,200,2014-04-14 21:51:00
6:51 PM,66.0,51.1,59,29.87,10.0,South,19.6,32.2,N/A,,Overcast,180,2014-04-14 22:51:00
7:51 PM,64.0,51.1,63,29.88,10.0,South,17.3,33.4,N/A,,Overcast,190,2014-04-14 23:51:00
8:51 PM,63.0,51.1,65,29.88,10.0,South,20.7,28.8,N/A,,Overcast,190,2014-04-15 00:51:00
9:51 PM,62.1,53.1,72,29.88,10.0,South,19.6,26.5,N/A,,Overcast,190,2014-04-15 01:51:00
10:51 PM,61.0,54.0,78,29.88,10.0,South,16.1,27.6,N/A,,Overcast,190,2014-04-15 02:51:00
11:51 PM,61.0,55.0,81,29.88,10.0,South,15.0,25.3,N/A,,Mostly Cloudy,190,2014-04-15 03:51:00